• în Republica Moldova
  • Lista ţărilor
  • Pe 7 zile
  • Temperatura apei
  • Hartă satelitară
  • Meteo pe hartă
  • Widget-uri
  • user-avatar
    Intrare

    Meteo pe oră la Mayrhofen

    Astăzi, 22 Iunie, Vineri

    Timp Temperatura Precipitaţii Vânt Presiune Umiditate
    00:00 +9°C° 1,3 mm 2 m/s 619 mmHg 97%
    01:00 +10°C° 0 mm 2 m/s 619 mmHg 97%
    02:00 +9°C° 1,3 mm 2 m/s 619 mmHg 97%
    03:00 +8°C° 1,3 mm 2 m/s 619 mmHg 97%
    04:00 +7°C° 1,3 mm 3 m/s 619 mmHg 97%
    05:00 +7°C° 0,2 mm 3 m/s 619 mmHg 96%
    06:00 +7°C° 0,2 mm 3 m/s 619 mmHg 94%
    07:00 +7°C° 0,2 mm 3 m/s 619 mmHg 93%
    08:00 +7°C° 0 mm 3 m/s 619 mmHg 88%
    09:00 +8°C° 0 mm 3 m/s 619 mmHg 84%
    10:00 +8°C° 0 mm 3 m/s 619 mmHg 79%
    11:00 +9°C° 0,1 mm 3 m/s 620 mmHg 73%
    12:00 +10°C° 0,1 mm 3 m/s 620 mmHg 66%
    13:00 +11°C° 0,1 mm 3 m/s 621 mmHg 60%
    14:00 +10°C° 0,1 mm 3 m/s 621 mmHg 61%
    15:00 +10°C° 0,1 mm 3 m/s 621 mmHg 63%
    16:00 +9°C° 0,1 mm 3 m/s 621 mmHg 64%
    17:00 +8°C° 0,2 mm 3 m/s 621 mmHg 70%
    18:00 +7°C° 0,2 mm 3 m/s 621 mmHg 75%
    19:00 +5°C° 0,2 mm 3 m/s 621 mmHg 80%
    20:00 +5°C° 0,1 mm 2 m/s 621 mmHg 83%
    21:00 +4°C° 0,1 mm 2 m/s 621 mmHg 86%
    22:00 +4°C° 0,1 mm 2 m/s 621 mmHg 89%
    23:00 +3°C° 0 mm 2 m/s 621 mmHg 90%

    Mâine, 23 Iunie, Sâmbătă

    Timp Temperatura Precipitaţii Vânt Presiune Umiditate
    00:00 +3°C° 0 mm 2 m/s 621 mmHg 91%
    01:00 +2°C° 0 mm 2 m/s 621 mmHg 91%
    02:00 +2°C° 0 mm 2 m/s 620 mmHg 92%
    03:00 +2°C° 0 mm 1 m/s 620 mmHg 92%
    04:00 +2°C° 0 mm 1 m/s 620 mmHg 93%
    05:00 +3°C° 0 mm 1 m/s 620 mmHg 86%
    06:00 +5°C° 0 mm 1 m/s 621 mmHg 79%
    07:00 +6°C° 0 mm 1 m/s 621 mmHg 72%
    08:00 +7°C° 0 mm 2 m/s 622 mmHg 62%
    09:00 +9°C° 0 mm 2 m/s 623 mmHg 52%
    10:00 +12°C° 0 mm 2 m/s 623 mmHg 42%
    11:00 +13°C° 0 mm 2 m/s 623 mmHg 41%
    12:00 +13°C° 0 mm 3 m/s 623 mmHg 39%
    13:00 +13°C° 0 mm 3 m/s 623 mmHg 38%
    14:00 +13°C° 0 mm 3 m/s 623 mmHg 41%
    15:00 +13°C° 0 mm 3 m/s 623 mmHg 44%
    16:00 +12°C° 0 mm 3 m/s 622 mmHg 47%
    17:00 +11°C° 0 mm 3 m/s 622 mmHg 57%
    18:00 +10°C° 0 mm 3 m/s 621 mmHg 66%
    19:00 +8°C° 0 mm 2 m/s 621 mmHg 76%
    20:00 +7°C° 0 mm 2 m/s 621 mmHg 81%
    21:00 +6°C° 0 mm 2 m/s 621 mmHg 86%
    22:00 +5°C° 0 mm 2 m/s 621 mmHg 92%
    23:00 +6°C° 0 mm 1 m/s 620 mmHg 92%

    Poimâine, 24 Iunie, Duminică

    Timp Temperatura Precipitaţii Vânt Presiune Umiditate
    00:00 +5°C° 0 mm 1 m/s 620 mmHg 93%
    01:00 +5°C° 0 mm 1 m/s 620 mmHg 93%
    02:00 +4°C° 0 mm 1 m/s 620 mmHg 93%
    03:00 +4°C° 0 mm 1 m/s 619 mmHg 94%
    04:00 +4°C° 0 mm 1 m/s 619 mmHg 94%
    05:00 +5°C° 0,1 mm 1 m/s 619 mmHg 90%
    06:00 +6°C° 0,1 mm 1 m/s 620 mmHg 86%
    07:00 +7°C° 0,1 mm 1 m/s 620 mmHg 82%
    08:00 +8°C° 0,3 mm 1 m/s 620 mmHg 79%
    09:00 +7°C° 0,3 mm 2 m/s 620 mmHg 76%
    10:00 +8°C° 0,3 mm 2 m/s 621 mmHg 74%
    11:00 +9°C° 0,4 mm 2 m/s 621 mmHg 72%
    12:00 +10°C° 0,4 mm 2 m/s 621 mmHg 70%
    13:00 +10°C° 0,4 mm 2 m/s 621 mmHg 68%
    14:00 +10°C° 0,4 mm 2 m/s 621 mmHg 70%
    15:00 +10°C° 0,4 mm 2 m/s 620 mmHg 73%
    16:00 +10°C° 0,4 mm 2 m/s 620 mmHg 75%
    17:00 +9°C° 0,4 mm 2 m/s 620 mmHg 79%
    18:00 +8°C° 0,4 mm 2 m/s 620 mmHg 83%
    19:00 +8°C° 0,4 mm 2 m/s 620 mmHg 87%
    20:00 +7°C° 0,1 mm 2 m/s 620 mmHg 90%
    21:00 +5°C° 0,1 mm 2 m/s 619 mmHg 93%
    22:00 +4°C° 0,1 mm 2 m/s 619 mmHg 96%
    23:00 +5°C° 0 mm 1 m/s 619 mmHg 96%

    25 Iunie, Luni

    Timp Temperatura Precipitaţii Vânt Presiune Umiditate
    00:00 +4°C° 0 mm 1 m/s 619 mmHg 96%
    01:00 +3°C° 0 mm 1 m/s 619 mmHg 96%
    02:00 +3°C° 0 mm 1 m/s 618 mmHg 95%
    03:00 +3°C° 0 mm 1 m/s 618 mmHg 95%
    04:00 +2°C° 0 mm 1 m/s 618 mmHg 94%
    05:00 +4°C° 0 mm 1 m/s 619 mmHg 90%
    06:00 +6°C° 0 mm 1 m/s 619 mmHg 85%
    07:00 +7°C° 0 mm 1 m/s 620 mmHg 80%
    08:00 +8°C° 0 mm 2 m/s 621 mmHg 73%
    09:00 +10°C° 0 mm 2 m/s 621 mmHg 66%
    10:00 +12°C° 0 mm 2 m/s 622 mmHg 59%
    11:00 +13°C° 0,1 mm 2 m/s 622 mmHg 56%
    12:00 +14°C° 0,1 mm 2 m/s 622 mmHg 53%
    13:00 +15°C° 0,1 mm 2 m/s 622 mmHg 51%
    14:00 +14°C° 0,1 mm 3 m/s 622 mmHg 53%
    15:00 +13°C° 0,1 mm 3 m/s 622 mmHg 55%
    16:00 +13°C° 0,1 mm 3 m/s 622 mmHg 56%
    17:00 +12°C° 0,2 mm 3 m/s 622 mmHg 64%
    18:00 +12°C° 0,2 mm 2 m/s 622 mmHg 72%
    19:00 +10°C° 0,2 mm 2 m/s 621 mmHg 79%
    20:00 +8°C° 0 mm 2 m/s 621 mmHg 85%
    21:00 +7°C° 0 mm 2 m/s 621 mmHg 90%
    22:00 +6°C° 0 mm 1 m/s 621 mmHg 96%
    23:00 +6°C° 0 mm 1 m/s 621 mmHg 96%

    26 Iunie, Marţi

    Timp Temperatura Precipitaţii Vânt Presiune Umiditate
    00:00 +5°C° 0 mm 1 m/s 620 mmHg 96%
    01:00 +4°C° 0 mm 1 m/s 620 mmHg 96%
    02:00 +4°C° 0 mm 1 m/s 620 mmHg 95%
    03:00 +3°C° 0 mm 1 m/s 619 mmHg 94%
    04:00 +3°C° 0 mm 1 m/s 619 mmHg 93%
    05:00 +5°C° 0 mm 1 m/s 620 mmHg 84%
    06:00 +7°C° 0 mm 1 m/s 620 mmHg 76%
    07:00 +9°C° 0 mm 1 m/s 621 mmHg 67%
    08:00 +11°C° 0 mm 1 m/s 622 mmHg 59%
    09:00 +13°C° 0 mm 2 m/s 623 mmHg 51%
    10:00 +15°C° 0 mm 2 m/s 623 mmHg 43%
    11:00 +16°C° 0 mm 2 m/s 623 mmHg 42%
    12:00 +17°C° 0 mm 2 m/s 623 mmHg 41%
    13:00 +17°C° 0 mm 3 m/s 623 mmHg 41%
    14:00 +17°C° 0 mm 3 m/s 623 mmHg 43%
    15:00 +17°C° 0 mm 3 m/s 623 mmHg 46%
    16:00 +17°C° 0 mm 3 m/s 623 mmHg 49%
    17:00 +16°C° 0 mm 3 m/s 623 mmHg 57%
    18:00 +14°C° 0 mm 2 m/s 623 mmHg 65%
    19:00 +13°C° 0 mm 2 m/s 622 mmHg 72%
    20:00 +10°C° 0 mm 2 m/s 622 mmHg 80%
    21:00 +9°C° 0 mm 1 m/s 621 mmHg 88%
    22:00 +7°C° 0 mm 1 m/s 621 mmHg 95%
    23:00 +6°C° 0 mm 1 m/s 620 mmHg 95%

    27 Iunie, Miercuri

    Timp Temperatura Precipitaţii Vânt Presiune Umiditate
    00:00 +6°C° 0 mm 1 m/s 620 mmHg 96%
    01:00 +6°C° 0 mm 1 m/s 620 mmHg 96%
    02:00 +5°C° 0 mm 1 m/s 620 mmHg 96%
    03:00 +5°C° 0 mm 1 m/s 620 mmHg 96%
    04:00 +5°C° 0 mm 1 m/s 620 mmHg 96%
    05:00 +7°C° 0 mm 1 m/s 621 mmHg 88%
    06:00 +10°C° 0 mm 1 m/s 622 mmHg 81%
    07:00 +12°C° 0 mm 1 m/s 623 mmHg 73%
    08:00 +14°C° 0 mm 1 m/s 623 mmHg 62%
    09:00 +15°C° 0 mm 1 m/s 624 mmHg 51%
    10:00 +17°C° 0 mm 2 m/s 624 mmHg 40%
    11:00 +18°C° 0 mm 2 m/s 624 mmHg 39%
    12:00 +19°C° 0 mm 2 m/s 624 mmHg 38%
    13:00 +20°C° 0 mm 2 m/s 625 mmHg 37%
    14:00 +20°C° 0 mm 3 m/s 624 mmHg 40%
    15:00 +20°C° 0 mm 3 m/s 624 mmHg 43%
    16:00 +19°C° 0 mm 3 m/s 624 mmHg 46%
    17:00 +18°C° 0 mm 3 m/s 624 mmHg 54%
    18:00 +17°C° 0 mm 3 m/s 623 mmHg 63%
    19:00 +15°C° 0 mm 2 m/s 623 mmHg 72%
    20:00 +13°C° 0 mm 2 m/s 622 mmHg 80%
    21:00 +10°C° 0 mm 2 m/s 622 mmHg 88%
    22:00 +9°C° 0 mm 1 m/s 622 mmHg 96%
    23:00 +9°C° 0 mm 1 m/s 621 mmHg 96%
    Arată mai mult